SM2GSR-2 Weather Reports


Display with metric or nautical units.
time (UTC)temp
F
wind
direction
speed
MPH
gust
MPH
rain 1hr
in
rain 24hr
in
rain mn
in
humidity
%
barometer
mb
20260904034504 46 79 0.0 0.0 0.00 0.00 0.00 78 994.5
20260904034004 46 79 0.0 0.0 0.00 0.00 0.00 78 994.6
20260904033504 46 79 0.0 0.0 0.00 0.00 0.00 78 994.6
20260904033003 46 79 0.0 0.0 0.00 0.00 0.00 78 994.6
20260904032504 46 79 0.0 0.0 0.00 0.00 0.00 78 994.6
20260904032004 45 79 0.0 0.0 0.00 0.00 0.00 78 994.6
20260904031503 45 79 0.0 0.0 0.00 0.00 0.00 78 994.6
20260904031004 45 79 0.0 0.0 0.00 0.00 0.00 78 994.7
20260904030504 45 79 0.0 0.0 0.00 0.00 0.00 78 994.6
20260904030004 44 79 0.0 0.0 0.00 0.00 0.00 79 994.6
20260904025504 44 79 0.0 0.0 0.00 0.00 0.00 79 994.7
20260904025004 44 79 0.0 0.0 0.00 0.00 0.00 79 994.7
20260904024504 44 79 0.0 0.0 0.00 0.00 0.00 79 994.7
20260904024004 43 79 0.0 0.0 0.00 0.00 0.00 79 994.8
20260904023504 43 79 0.0 0.0 0.00 0.00 0.00 79 994.8
20260904022504 43 79 0.0 0.0 0.00 0.00 0.00 79 994.8
20260904022004 43 79 0.0 0.0 0.00 0.00 0.00 79 994.8
20260904021504 43 79 0.0 0.0 0.00 0.00 0.00 79 994.8
20260904021004 42 79 0.0 0.0 0.00 0.00 0.00 80 994.8
20260904020504 42 79 0.0 0.0 0.00 0.00 0.00 80 994.9
20260904020004 42 79 0.0 0.0 0.00 0.00 0.00 80 994.9
20260904015504 42 79 0.0 0.0 0.00 0.00 0.00 80 995.0
20260904015004 42 79 0.0 0.0 0.00 0.00 0.00 80 994.9
20260904014504 42 79 0.0 0.0 0.00 0.00 0.00 80 994.9
20260904014005 41 79 0.0 0.0 0.00 0.00 0.00 81 994.9
20260904013504 41 79 0.0 0.0 0.00 0.00 0.00 81 995.0
20260904012004 40 79 0.0 0.0 0.00 0.00 0.00 82 995.0
20260904011504 40 79 0.0 0.0 0.00 0.00 0.00 82 995.0
20260904010504 40 79 0.0 0.0 0.00 0.00 0.00 82 995.0
20260904010004 40 79 0.0 0.0 0.00 0.00 0.00 82 995.0
20260904005504 40 79 0.0 0.0 0.00 0.00 0.00 83 995.0
20260904004504 39 79 0.0 0.0 0.00 0.00 0.00 83 995.0
20260904004004 39 79 0.0 0.0 0.00 0.00 0.00 84 995.1
20260904003504 39 79 0.0 0.0 0.00 0.00 0.00 84 995.1
20260904003004 39 79 0.0 0.0 0.00 0.00 0.00 84 995.1
20260904002503 40 79 0.0 0.0 0.00 0.00 0.00 84 995.1
20260904002004 40 79 0.0 0.0 0.00 0.00 0.00 83 995.1
20260904001504 40 79 0.0 0.0 0.00 0.00 0.00 83 995.2
20260904001003 40 79 0.0 0.0 0.00 0.00 0.00 83 995.2
20260904000504 40 79 0.0 0.0 0.00 0.00 0.00 83 995.1
20260904000004 40 79 0.0 0.0 0.00 0.00 0.00 83 995.1
20260903235004 40 79 0.0 0.0 0.00 0.00 0.00 83 995.1
20260903234004 39 79 0.0 0.0 0.00 0.00 0.00 84 995.1
20260903233505 39 79 0.0 0.0 0.00 0.00 0.00 84 995.2
20260903232004 39 79 0.0 0.0 0.00 0.00 0.00 85 995.3
20260903231504 39 79 0.0 0.0 0.00 0.00 0.00 85 995.3
20260903231004 39 79 0.0 0.0 0.00 0.00 0.00 86 995.2
20260903230504 39 79 0.0 0.0 0.00 0.00 0.00 86 995.2
20260903224504 39 79 0.0 0.0 0.00 0.00 0.00 86 995.1
20260903224004 39 79 0.0 0.0 0.00 0.00 0.00 86 995.2
20260903223504 39 79 0.0 0.0 0.00 0.01 0.00 86 995.0
20260903222504 39 79 0.0 0.0 0.00 0.01 0.00 86 995.1
20260903221504 40 79 0.0 0.0 0.00 0.02 0.00 86 995.1
20260903221004 40 79 0.0 0.0 0.00 0.03 0.00 86 995.1
20260903220504 40 79 0.0 0.0 0.00 0.03 0.00 86 995.1
20260903214504 41 79 0.0 0.0 0.00 0.05 0.03 85 995.2
20260903213504 41 79 0.0 0.0 0.00 0.14 0.03 84 995.2
20260903213004 41 79 0.0 0.0 0.00 0.18 0.03 84 995.2
20260903212503 41 79 0.0 0.0 0.00 0.19 0.03 84 995.2
20260903212004 40 79 0.0 0.0 0.00 0.19 0.03 85 995.2
20260903211504 40 79 0.0 0.0 0.00 0.19 0.03 85 995.1
20260903211004 40 79 0.0 0.0 0.00 0.19 0.03 85 995.0
20260903210004 40 79 0.0 0.0 0.00 0.19 0.03 85 995.0
20260903205004 40 79 0.0 0.0 0.00 0.19 0.03 86 995.0
20260903204503 40 79 0.0 0.0 0.00 0.19 0.03 86 995.1
20260903204004 40 79 0.0 0.0 0.00 0.19 0.03 86 995.1
20260903203504 39 79 0.0 0.0 0.00 0.19 0.03 87 995.1
20260903203005 39 79 0.0 0.0 0.00 0.19 0.03 88 995.2
20260903202504 39 79 0.0 0.0 0.00 0.19 0.03 88 995.2
20260903200504 40 79 0.0 0.0 0.00 0.19 0.03 88 995.1
20260903200004 40 79 0.0 0.0 0.00 0.19 0.03 88 995.1
20260903195505 40 79 0.0 0.0 0.00 0.19 0.03 88 995.2
20260903194504 40 79 0.0 0.0 0.00 0.19 0.03 88 995.3
20260903194004 40 79 0.0 0.0 0.00 0.19 0.03 88 995.2
20260903193504 40 79 0.0 0.0 0.00 0.19 0.03 89 995.1
20260903193004 41 79 0.0 0.0 0.00 0.23 0.03 88 995.2
20260903192504 41 79 0.0 0.0 0.00 0.30 0.03 88 995.2
20260903192004 41 79 0.0 0.0 0.00 0.31 0.03 89 995.2
20260903191504 41 79 0.0 0.0 0.00 0.31 0.03 89 995.2
20260903191005 41 79 0.0 0.0 0.00 0.31 0.03 89 995.1
20260903190504 41 79 0.0 0.0 0.00 0.31 0.03 89 995.1
20260903190004 41 79 0.0 0.0 0.00 0.31 0.03 89 995.1
20260903185504 42 79 0.0 0.0 0.00 0.31 0.03 89 995.1
20260903185004 42 79 0.0 0.0 0.00 0.31 0.03 89 995.0
20260903184005 42 79 0.0 0.0 0.00 0.31 0.03 89 995.1
20260903183004 43 79 0.0 0.0 0.00 0.31 0.03 89 995.1
20260903182504 43 79 0.0 0.0 0.00 0.31 0.03 89 995.1
20260903182004 43 79 0.0 0.0 0.00 0.31 0.03 90 995.1
20260903181504 44 79 0.0 0.0 0.00 0.31 0.03 89 995.1
20260903181004 44 79 0.0 0.0 0.00 0.31 0.03 89 995.2
20260903180504 44 79 0.0 0.0 0.00 0.31 0.03 89 995.2
20260903180004 44 79 0.0 0.0 0.00 0.31 0.03 89 995.1
20260903175503 45 79 0.0 0.0 0.00 0.31 0.03 89 995.1
20260903175005 45 79 0.0 0.0 0.00 0.31 0.03 90 995.0
20260903174504 45 79 0.0 0.0 0.00 0.31 0.03 90 995.0
20260903173004 46 79 0.0 0.0 0.00 0.31 0.03 89 994.9
20260903172504 46 79 0.0 0.0 0.00 0.31 0.03 89 994.9
20260903172004 47 79 0.0 0.0 0.00 0.31 0.03 90 994.9
20260903171504 47 79 0.0 0.0 0.00 0.31 0.03 89 994.9
20260903170003 48 79 0.0 0.0 0.00 0.31 0.03 89 994.9
20260903165504 48 79 0.0 0.0 0.00 0.31 0.03 89 994.9
20260903165004 49 79 0.0 0.0 0.00 0.31 0.03 89 994.9
20260903164503 49 79 0.0 0.0 0.00 0.31 0.03 89 994.9
20260903164004 49 79 0.0 0.0 0.00 0.31 0.03 89 994.8
20260903163504 50 79 0.0 1.0 0.00 0.31 0.03 89 994.8
20260903162504 50 79 0.0 0.0 0.00 0.31 0.03 89 994.8
20260903161004 51 79 0.0 0.0 0.00 0.31 0.03 89 994.7
20260903160504 51 79 0.0 0.0 0.00 0.31 0.03 89 994.6
20260903155504 52 79 0.0 0.0 0.00 0.31 0.03 88 994.6
20260903155004 52 79 0.0 0.0 0.00 0.31 0.03 88 994.6
20260903154004 53 79 0.0 0.0 0.00 0.31 0.03 87 994.7
20260903153506 53 79 0.0 0.0 0.00 0.31 0.03 86 994.7
20260903153004 54 79 0.0 0.0 0.00 0.31 0.03 86 994.6
20260903152504 54 79 0.0 0.0 0.00 0.31 0.03 85 994.7
20260903151504 55 79 0.0 0.0 0.00 0.31 0.03 82 994.7
20260903151004 56 79 0.0 0.0 0.00 0.31 0.03 81 994.7
20260903150504 56 79 0.0 0.0 0.00 0.31 0.03 79 994.7
20260903150005 57 79 0.0 0.0 0.00 0.31 0.03 76 994.7
20260903145004 57 79 0.0 0.0 0.00 0.31 0.03 78 994.8
20260903144504 56 79 0.0 0.0 0.00 0.31 0.03 82 994.7
20260903144004 55 79 0.0 0.0 0.00 0.31 0.03 82 994.8
20260903143504 56 79 0.0 0.0 0.00 0.31 0.03 81 994.7
20260903143005 57 79 0.0 0.0 0.00 0.31 0.03 76 994.8
20260903142504 56 79 0.0 1.0 0.00 0.31 0.03 78 994.8
20260903141004 56 79 0.0 0.0 0.00 0.33 0.03 77 994.8
20260903140505 56 79 0.0 0.0 0.00 0.34 0.03 79 994.7
20260903140003 55 79 0.0 0.0 0.00 0.35 0.03 77 994.8
20260903135504 55 79 0.0 3.0 0.00 0.35 0.03 77 994.8
20260903135004 56 79 0.0 0.0 0.00 0.35 0.03 75 994.8
20260903134504 57 79 0.0 0.0 0.00 0.35 0.03 76 994.8
20260903134004 56 79 0.0 2.0 0.00 0.35 0.03 80 994.8
20260903133504 56 79 2.0 3.0 0.00 0.35 0.03 79 994.8
20260903133004 56 79 1.0 3.0 0.00 0.35 0.03 81 994.8
20260903132504 56 77 0.0 0.0 0.00 0.36 0.03 81 994.8
20260903132004 55 77 0.0 2.0 0.00 0.36 0.03 81 994.9
20260903131504 55 78 0.0 2.0 0.00 0.36 0.03 80 995.0
20260903131004 55 78 1.0 3.0 0.00 0.36 0.03 81 994.9
20260903130504 55 78 0.0 0.0 0.00 0.36 0.03 80 995.0
20260903130004 55 78 0.0 0.0 0.00 0.37 0.03 82 995.0
20260903125503 55 78 0.0 0.0 0.00 0.37 0.03 82 995.0
20260903125004 55 78 0.0 0.0 0.00 0.37 0.03 81 995.0
20260903124504 55 78 0.0 0.0 0.00 0.37 0.03 83 995.0
20260903124004 55 78 1.0 2.0 0.00 0.37 0.03 82 995.0
20260903123504 54 78 0.0 0.0 0.00 0.37 0.03 83 995.0
20260903123004 54 78 0.0 0.0 0.00 0.37 0.03 83 995.0
20260903122004 53 78 0.0 0.0 0.00 0.37 0.03 85 995.0
20260903121004 52 74 0.0 0.0 0.00 0.37 0.03 84 994.9
20260903120504 52 74 0.0 0.0 0.00 0.37 0.03 85 994.9
20260903120004 52 74 0.0 0.0 0.00 0.37 0.03 85 994.9
20260903115504 52 77 0.0 0.0 0.00 0.37 0.03 84 994.9
20260903115004 53 82 0.0 0.0 0.00 0.37 0.03 83 994.9
20260903114504 53 93 0.0 1.0 0.00 0.37 0.03 83 994.9
20260903114004 54 94 0.0 0.0 0.00 0.37 0.03 83 994.9
20260903113004 54 94 1.0 5.0 0.00 0.37 0.03 85 994.9
20260903112504 54 146 1.0 5.0 0.00 0.37 0.03 85 994.9
20260903111004 54 154 1.0 2.0 0.00 0.37 0.03 87 994.9
20260903110504 53 171 1.0 3.0 0.00 0.37 0.03 89 994.8
20260903110004 53 239 1.0 3.0 0.00 0.37 0.03 89 994.8
20260903105504 52 245 2.0 3.0 0.00 0.37 0.03 90 994.8
20260903105004 51 246 0.0 3.0 0.00 0.37 0.03 90 994.8
20260903104005 50 246 0.0 0.0 0.00 0.37 0.03 89 994.9
20260903103505 50 246 0.0 0.0 0.00 0.37 0.03 89 995.0
20260903103004 50 246 0.0 0.0 0.00 0.37 0.03 89 995.0
20260903102504 50 246 0.0 0.0 0.00 0.37 0.03 89 995.0
20260903102004 50 246 0.0 0.0 0.00 0.37 0.03 89 994.9
20260903101504 50 246 0.0 0.0 0.00 0.37 0.03 89 994.9
20260903101004 49 246 0.0 0.0 0.00 0.37 0.03 89 994.9
20260903100504 49 246 0.0 0.0 0.00 0.37 0.03 89 994.8
20260903100004 49 246 0.0 0.0 0.00 0.37 0.03 89 994.8
20260903095504 49 246 0.0 0.0 0.00 0.37 0.03 89 994.8
20260903095004 49 246 0.0 0.0 0.00 0.37 0.03 89 994.7
20260903094004 49 246 0.0 0.0 0.00 0.37 0.03 90 994.7
20260903093504 49 246 0.0 0.0 0.00 0.37 0.03 90 994.6
20260903092515 49 246 0.0 0.0 0.00 0.37 0.03 89 994.6
20260903092015 49 246 0.0 0.0 0.00 0.37 0.03 89 994.6
20260903091004 49 246 0.0 0.0 0.00 0.37 0.03 89 994.6
20260903090504 49 246 0.0 0.0 0.00 0.37 0.03 89 994.6
20260903090004 49 246 0.0 0.0 0.00 0.37 0.03 89 994.5
20260903085504 48 246 0.0 0.0 0.00 0.37 0.03 89 994.5
20260903085005 48 246 0.0 0.0 0.00 0.37 0.03 88 994.5
20260903084504 48 246 0.0 0.0 0.00 0.37 0.03 87 994.5
20260903084004 48 246 0.0 0.0 0.00 0.37 0.03 87 994.5
20260903083504 48 246 0.0 0.0 0.00 0.37 0.03 86 994.5
20260903083004 48 246 0.0 0.0 0.00 0.37 0.03 86 994.4
20260903082504 48 246 0.0 0.0 0.00 0.37 0.03 85 994.4
20260903082004 48 246 0.0 0.0 0.00 0.37 0.03 83 994.4
20260903081504 48 246 0.0 0.0 0.00 0.37 0.03 82 994.4
20260903081004 48 246 0.0 0.0 0.00 0.37 0.03 82 994.4
20260903075504 48 246 0.0 0.0 0.00 0.37 0.03 81 994.3
20260903075005 47 246 0.0 0.0 0.00 0.37 0.03 81 994.3
20260903074505 47 246 0.0 0.0 0.00 0.37 0.03 80 994.3
20260903074004 47 246 0.0 0.0 0.00 0.37 0.03 80 994.2
20260903073504 47 246 0.0 3.0 0.00 0.37 0.03 80 994.2
20260903073004 47 246 0.0 0.0 0.00 0.37 0.03 80 994.3
20260903072504 47 246 0.0 0.0 0.00 0.37 0.03 79 994.3
20260903072005 47 246 0.0 0.0 0.00 0.37 0.03 79 994.3
20260903071504 47 246 0.0 0.0 0.00 0.37 0.03 79 994.3
20260903071004 47 246 0.0 0.0 0.00 0.37 0.03 79 994.3
20260903070504 47 246 0.0 3.0 0.00 0.37 0.03 79 994.4
20260903070004 47 246 0.0 0.0 0.00 0.37 0.03 79 994.3
20260903065503 47 246 0.0 0.0 0.00 0.37 0.03 79 994.3
20260903065004 47 246 0.0 3.0 0.00 0.37 0.03 79 994.3
20260903064504 47 246 0.0 0.0 0.00 0.37 0.03 79 994.3
20260903064004 47 246 0.0 0.0 0.00 0.37 0.03 79 994.3
20260903063504 47 246 0.0 0.0 0.00 0.37 0.03 79 994.3
20260903063004 46 246 0.0 0.0 0.00 0.37 0.03 79 994.3
20260903062004 47 246 2.0 3.0 0.00 0.37 0.03 78 994.3
20260903061504 47 246 1.0 3.0 0.00 0.37 0.03 78 994.3
20260903061004 47 246 0.0 0.0 0.00 0.37 0.03 78 994.3
20260903060504 47 246 0.0 0.0 0.00 0.37 0.03 78 994.4
20260903060004 47 246 0.0 0.0 0.00 0.37 0.03 78 994.4
20260903055004 47 246 0.0 0.0 0.00 0.37 0.03 78 994.3
20260903054504 47 246 0.0 0.0 0.00 0.37 0.03 78 994.2
20260903053504 46 246 0.0 0.0 0.00 0.37 0.03 78 994.2
20260903053004 46 246 0.0 0.0 0.00 0.37 0.03 78 994.1
20260903052504 46 246 0.0 1.0 0.00 0.37 0.03 78 994.1
20260903052004 45 246 0.0 0.0 0.00 0.37 0.03 78 994.0
20260903051504 45 246 0.0 0.0 0.00 0.37 0.03 78 994.0
20260903050504 44 246 0.0 0.0 0.00 0.37 0.03 79 993.9
20260903045004 42 246 0.0 0.0 0.00 0.37 0.03 82 993.6
20260903044004 41 246 0.0 0.0 0.00 0.37 0.03 84 993.6
20260903043504 40 246 0.0 0.0 0.00 0.37 0.03 84 993.7
20260903042504 41 246 0.0 0.0 0.00 0.37 0.03 84 993.6
20260903042004 41 246 0.0 0.0 0.00 0.37 0.03 84 993.6
20260903041504 40 246 0.0 0.0 0.00 0.37 0.03 85 993.7
20260903041004 40 246 0.0 0.0 0.00 0.37 0.03 86 993.7
20260903040004 41 246 0.0 0.0 0.00 0.37 0.03 86 993.7
20260903035004 41 246 0.0 0.0 0.00 0.37 0.03 86 993.6